Time,TemperatureF,DewpointF,PressureIn,WindDirection,WindDirectionDegrees,WindSpeedMPH,WindSpeedGustMPH,Humidity,HourlyPrecipIn,Conditions,Clouds,dailyrainin,SolarRadiationWatts/m^2,SoftwareType,DateUTC
2013-06-30 00:01:00,80.0,76.1,29.75,ENE,61,2.3,2.3,88,0.00,CLR,SKC,0.00,0.0,WeatherDisplay:10.37,2013-06-30 05:01:00,
2013-06-30 00:06:00,80.1,76.2,29.75,SSW,204,3.5,3.5,88,0.00,CLR,SKC,0.00,0.0,WeatherDisplay:10.37,2013-06-30 05:06:00,
2013-06-30 00:11:00,80.0,76.1,29.75,South,177,4.6,4.6,88,0.00,CLR,SKC,0.00,0.0,WeatherDisplay:10.37,2013-06-30 05:11:00,
2013-06-30 00:16:00,80.0,76.1,29.75,ESE,121,5.8,5.8,88,0.00,CLR,SKC,0.00,0.0,WeatherDisplay:10.37,2013-06-30 05:16:00,
2013-06-30 00:21:00,80.0,76.1,29.75,WSW,240,4.6,4.6,88,0.00,CLR,SKC,0.00,0.0,WeatherDisplay:10.37,2013-06-30 05:21:00,
2013-06-30 00:26:00,80.0,76.5,29.75,South,175,4.6,4.6,89,0.00,CLR,SKC,0.00,0.0,WeatherDisplay:10.37,2013-06-30 05:26:00,
2013-06-30 00:31:00,79.9,76.4,29.75,SSW,203,4.6,4.6,89,0.00,CLR,SKC,0.00,0.0,WeatherDisplay:10.37,2013-06-30 05:31:00,
2013-06-30 00:36:00,79.8,76.3,29.75,ESE,107,3.5,3.5,89,0.00,CLR,SKC,0.00,0.0,WeatherDisplay:10.37,2013-06-30 05:36:00,
2013-06-30 00:41:00,79.8,76.3,29.75,ESE,109,5.8,5.8,89,0.00,CLR,SKC,0.00,0.0,WeatherDisplay:10.37,2013-06-30 05:41:00,
2013-06-30 00:46:00,79.7,76.2,29.75,SSE,163,2.3,2.3,89,0.00,CLR,SKC,0.00,0.0,WeatherDisplay:10.37,2013-06-30 05:46:00,
2013-06-30 00:51:00,79.7,76.5,29.75,East,84,3.5,3.5,90,0.00,CLR,SKC,0.00,0.0,WeatherDisplay:10.37,2013-06-30 05:51:00,
2013-06-30 00:56:00,79.6,76.4,29.75,WNW,295,3.5,3.5,90,0.00,CLR,SKC,0.00,0.0,WeatherDisplay:10.37,2013-06-30 05:56:00,
2013-06-30 01:01:00,79.6,76.4,29.75,SE,144,6.9,6.9,90,0.00,CLR,SKC,0.00,0.0,WeatherDisplay:10.37,2013-06-30 06:01:00,
2013-06-30 01:06:00,79.5,76.3,29.75,SW,215,3.5,3.5,90,0.00,CLR,SKC,0.00,0.0,WeatherDisplay:10.37,2013-06-30 06:06:00,
2013-06-30 01:11:00,79.5,76.3,29.75,South,178,3.5,3.5,90,0.00,CLR,SKC,0.00,0.0,WeatherDisplay:10.37,2013-06-30 06:11:00,
2013-06-30 01:16:00,79.4,76.2,29.75,ESE,103,5.0,5.0,90,0.00,CLR,SKC,0.00,0.0,WeatherDisplay:10.37,2013-06-30 06:16:00,
2013-06-30 01:21:00,79.3,76.1,29.75,SSW,197,3.5,3.5,90,0.00,CLR,SKC,0.00,0.0,WeatherDisplay:10.37,2013-06-30 06:21:00,
2013-06-30 01:26:00,79.2,76.0,29.74,SW,224,4.0,4.0,90,0.00,CLR,SKC,0.00,0.0,WeatherDisplay:10.37,2013-06-30 06:26:00,
2013-06-30 01:31:00,79.1,75.9,29.74,SSE,149,3.5,3.5,90,0.00,CLR,SKC,0.00,0.0,WeatherDisplay:10.37,2013-06-30 06:31:00,
2013-06-30 01:36:00,79.1,75.9,29.74,SW,226,3.5,3.5,90,0.00,CLR,SKC,0.00,0.0,WeatherDisplay:10.37,2013-06-30 06:36:00,
2013-06-30 01:41:00,79.1,75.9,29.75,West,277,4.0,4.0,90,0.00,CLR,SKC,0.00,0.0,WeatherDisplay:10.37,2013-06-30 06:41:00,
2013-06-30 01:46:00,79.1,75.9,29.75,SE,142,4.0,4.0,90,0.00,CLR,SKC,0.00,0.0,WeatherDisplay:10.37,2013-06-30 06:46:00,
2013-06-30 01:51:00,79.0,75.8,29.75,West,273,6.9,6.9,90,0.00,CLR,SKC,0.00,0.0,WeatherDisplay:10.37,2013-06-30 06:51:00,
2013-06-30 01:56:00,78.9,75.7,29.74,SW,232,4.6,4.6,90,0.00,CLR,SKC,0.00,0.0,WeatherDisplay:10.37,2013-06-30 06:56:00,
2013-06-30 02:01:00,78.8,75.6,29.74,SSE,159,3.5,3.5,90,0.00,CLR,SKC,0.00,0.0,WeatherDisplay:10.37,2013-06-30 07:01:00,
2013-06-30 02:06:00,78.8,75.6,29.74,South,171,1.1,1.1,90,0.00,CLR,SKC,0.00,0.0,WeatherDisplay:10.37,2013-06-30 07:06:00,
2013-06-30 02:11:00,78.8,75.6,29.75,SSW,208,3.5,3.5,90,0.00,CLR,SKC,0.00,0.0,WeatherDisplay:10.37,2013-06-30 07:11:00,
2013-06-30 02:16:00,78.7,75.5,29.75,SSE,163,2.3,2.3,90,0.00,CLR,SKC,0.00,0.0,WeatherDisplay:10.37,2013-06-30 07:16:00,
2013-06-30 02:21:00,78.6,75.4,29.75,South,175,3.5,3.5,90,0.00,CLR,SKC,0.00,0.0,WeatherDisplay:10.37,2013-06-30 07:21:00,
2013-06-30 02:26:00,78.5,75.3,29.75,SE,144,4.0,4.0,90,0.00,CLR,SKC,0.00,0.0,WeatherDisplay:10.37,2013-06-30 07:26:00,
2013-06-30 02:31:00,78.5,75.0,29.75,South,174,4.6,4.6,89,0.00,CLR,SKC,0.00,0.0,WeatherDisplay:10.37,2013-06-30 07:31:00,
2013-06-30 02:36:00,78.5,75.0,29.75,SSE,167,6.9,6.9,89,0.00,CLR,SKC,0.00,0.0,WeatherDisplay:10.37,2013-06-30 07:36:00,
2013-06-30 02:41:00,78.5,75.0,29.75,SSE,165,5.0,5.0,89,0.00,CLR,SKC,0.00,0.0,WeatherDisplay:10.37,2013-06-30 07:41:00,
2013-06-30 02:46:00,78.5,75.0,29.75,SE,134,3.5,3.5,89,0.00,CLR,SKC,0.00,0.0,WeatherDisplay:10.37,2013-06-30 07:46:00,
2013-06-30 02:51:00,78.4,74.9,29.75,SE,146,5.0,5.0,89,0.00,CLR,SKC,0.00,0.0,WeatherDisplay:10.37,2013-06-30 07:51:00,
2013-06-30 02:56:00,78.4,74.9,29.74,South,190,3.5,3.5,89,0.00,CLR,SKC,0.00,0.0,WeatherDisplay:10.37,2013-06-30 07:56:00,
2013-06-30 03:01:00,78.4,74.9,29.74,South,182,3.5,3.5,89,0.00,CLR,SKC,0.00,0.0,WeatherDisplay:10.37,2013-06-30 08:01:00,
2013-06-30 03:06:00,78.4,74.9,29.74,WSW,238,3.5,3.5,89,0.00,CLR,SKC,0.00,0.0,WeatherDisplay:10.37,2013-06-30 08:06:00,
2013-06-30 03:11:00,78.5,75.0,29.74,SSW,202,3.5,3.5,89,0.00,CLR,SKC,0.00,0.0,WeatherDisplay:10.37,2013-06-30 08:11:00,
2013-06-30 03:16:00,78.4,74.9,29.74,SSW,192,1.1,1.1,89,0.00,CLR,SKC,0.00,0.0,WeatherDisplay:10.37,2013-06-30 08:16:00,
2013-06-30 03:21:00,78.4,74.9,29.74,SSW,210,3.5,3.5,89,0.00,CLR,SKC,0.00,0.0,WeatherDisplay:10.37,2013-06-30 08:21:00,
2013-06-30 03:26:00,78.4,74.9,29.74,SSE,148,2.3,2.3,89,0.00,CLR,SKC,0.00,0.0,WeatherDisplay:10.37,2013-06-30 08:26:00,
2013-06-30 03:31:00,78.3,74.8,29.74,WSW,246,2.3,2.3,89,0.00,CLR,SKC,0.00,0.0,WeatherDisplay:10.37,2013-06-30 08:31:00,
2013-06-30 03:36:00,78.4,74.9,29.74,ENE,73,5.8,5.8,89,0.00,CLR,SKC,0.00,0.0,WeatherDisplay:10.37,2013-06-30 08:36:00,
2013-06-30 03:41:00,78.4,74.9,29.74,SW,224,3.5,3.5,89,0.00,CLR,SKC,0.00,0.0,WeatherDisplay:10.37,2013-06-30 08:41:00,
2013-06-30 03:46:00,78.3,74.8,29.74,SW,226,3.5,3.5,89,0.00,CLR,SKC,0.00,0.0,WeatherDisplay:10.37,2013-06-30 08:46:00,
2013-06-30 03:51:00,78.4,74.5,29.74,SSW,201,3.0,3.0,88,0.00,CLR,SKC,0.00,0.0,WeatherDisplay:10.37,2013-06-30 08:51:00,
2013-06-30 03:56:00,78.4,74.5,29.74,SE,136,3.0,3.0,88,0.00,CLR,SKC,0.00,0.0,WeatherDisplay:10.37,2013-06-30 08:56:00,
2013-06-30 04:01:00,78.4,74.5,29.74,ESE,119,3.5,3.5,88,0.00,CLR,SKC,0.00,0.0,WeatherDisplay:10.37,2013-06-30 09:01:00,
2013-06-30 04:06:00,78.4,74.5,29.74,South,171,5.8,5.8,88,0.00,CLR,SKC,0.00,0.0,WeatherDisplay:10.37,2013-06-30 09:06:00,
2013-06-30 04:11:00,78.3,74.5,29.73,East,92,1.1,1.1,88,0.00,CLR,SKC,0.00,0.0,WeatherDisplay:10.37,2013-06-30 09:11:00,
2013-06-30 04:16:00,78.3,74.5,29.73,SSE,159,3.5,3.5,88,0.00,CLR,SKC,0.00,0.0,WeatherDisplay:10.37,2013-06-30 09:16:00,
2013-06-30 04:21:00,78.3,74.8,29.73,SSW,203,3.5,3.5,89,0.00,CLR,SKC,0.00,0.0,WeatherDisplay:10.37,2013-06-30 09:21:00,
2013-06-30 04:26:00,78.2,74.7,29.73,South,180,3.0,3.0,89,0.00,CLR,SKC,0.00,0.0,WeatherDisplay:10.37,2013-06-30 09:26:00,
2013-06-30 04:31:00,78.2,74.4,29.73,South,169,0.0,0.0,88,0.00,CLR,SKC,0.00,0.0,WeatherDisplay:10.37,2013-06-30 09:31:00,
2013-06-30 04:36:00,78.2,74.4,29.73,South,187,3.5,3.5,88,0.00,CLR,SKC,0.00,0.0,WeatherDisplay:10.37,2013-06-30 09:36:00,
2013-06-30 04:41:00,78.1,74.3,29.73,SSW,211,3.5,3.5,88,0.00,CLR,SKC,0.00,0.0,WeatherDisplay:10.37,2013-06-30 09:41:00,
2013-06-30 04:46:00,78.1,74.3,29.73,SSW,211,3.5,3.5,88,0.00,CLR,SKC,0.00,0.0,WeatherDisplay:10.37,2013-06-30 09:46:00,
2013-06-30 04:51:00,78.0,74.2,29.73,SSW,201,3.5,3.5,88,0.00,CLR,SKC,0.00,0.0,WeatherDisplay:10.37,2013-06-30 09:51:00,
2013-06-30 04:56:00,77.9,74.1,29.73,WSW,238,3.5,3.5,88,0.00,CLR,SKC,0.00,0.0,WeatherDisplay:10.37,2013-06-30 09:56:00,
2013-06-30 05:01:00,77.8,74.0,29.73,SW,224,3.5,3.5,88,0.00,CLR,SKC,0.00,0.0,WeatherDisplay:10.37,2013-06-30 10:01:00,
2013-06-30 05:06:00,77.8,74.0,29.73,SE,135,2.3,2.3,88,0.00,CLR,SKC,0.00,0.0,WeatherDisplay:10.37,2013-06-30 10:06:00,
2013-06-30 05:11:00,77.8,74.0,29.73,South,184,2.0,2.0,88,0.00,CLR,SKC,0.00,0.0,WeatherDisplay:10.37,2013-06-30 10:11:00,
2013-06-30 05:16:00,77.8,74.0,29.73,SSE,165,3.5,3.5,88,0.00,CLR,SKC,0.00,0.0,WeatherDisplay:10.37,2013-06-30 10:16:00,
2013-06-30 05:21:00,77.9,74.4,29.73,South,188,0.0,0.1,89,0.00,CLR,SKC,0.00,0.0,WeatherDisplay:10.37,2013-06-30 10:21:00,
2013-06-30 05:26:00,77.9,74.4,29.74,South,177,2.3,2.3,89,0.00,CLR,SKC,0.00,0.0,WeatherDisplay:10.37,2013-06-30 10:26:00,
2013-06-30 05:31:00,77.8,74.3,29.74,SSE,153,1.1,1.1,89,0.00,CLR,SKC,0.00,0.0,WeatherDisplay:10.37,2013-06-30 10:31:00,
2013-06-30 05:36:00,77.8,74.3,29.74,South,171,2.3,2.3,89,0.00,CLR,SKC,0.00,0.0,WeatherDisplay:10.37,2013-06-30 10:36:00,
2013-06-30 05:41:00,77.8,74.3,29.74,West,277,1.1,0.0,89,0.00,CLR,SKC,0.00,0.0,WeatherDisplay:10.37,2013-06-30 10:41:00,
2013-06-30 05:46:00,77.9,74.4,29.74,SSE,162,1.1,1.1,89,0.00,CLR,SKC,0.00,0.0,WeatherDisplay:10.37,2013-06-30 10:46:00,
2013-06-30 05:51:00,77.9,74.4,29.74,SSW,196,2.3,2.3,89,0.00,CLR,SKC,0.00,0.0,WeatherDisplay:10.37,2013-06-30 10:51:00,
2013-06-30 05:56:00,77.9,74.4,29.75,SSW,201,1.1,0.0,89,0.00,CLR,SKC,0.00,0.0,WeatherDisplay:10.37,2013-06-30 10:56:00,
2013-06-30 06:01:00,77.9,74.4,29.75,SSW,212,1.1,1.1,89,0.00,CLR,SKC,0.00,0.0,WeatherDisplay:10.37,2013-06-30 11:01:00,
2013-06-30 06:06:00,77.9,74.4,29.75,SSW,192,3.5,3.5,89,0.00,CLR,SKC,0.00,0.0,WeatherDisplay:10.37,2013-06-30 11:06:00,
2013-06-30 06:11:00,77.9,74.4,29.76,South,178,2.3,2.3,89,0.00,CLR,SKC,0.00,0.0,WeatherDisplay:10.37,2013-06-30 11:11:00,
2013-06-30 06:16:00,77.9,74.4,29.76,South,178,0.0,0.0,89,0.00,CLR,SKC,0.00,0.0,WeatherDisplay:10.37,2013-06-30 11:16:00,
2013-06-30 06:21:00,78.0,74.5,29.76,South,178,2.3,2.3,89,0.00,CLR,SKC,0.00,0.0,WeatherDisplay:10.37,2013-06-30 11:21:00,
2013-06-30 06:26:00,78.1,74.6,29.77,SSW,205,1.1,0.0,89,0.00,CLR,SKC,0.00,0.0,WeatherDisplay:10.37,2013-06-30 11:26:00,
2013-06-30 06:31:00,78.2,74.7,29.77,SSW,205,2.3,2.3,89,0.00,CLR,SKC,0.00,0.0,WeatherDisplay:10.37,2013-06-30 11:31:00,
2013-06-30 06:36:00,78.3,74.8,29.77,SSW,205,1.1,1.1,89,0.00,CLR,SKC,0.00,0.0,WeatherDisplay:10.37,2013-06-30 11:36:00,
2013-06-30 06:41:00,78.5,75.0,29.79,SSW,205,0.0,0.0,89,0.00,CLR,SKC,0.00,0.0,WeatherDisplay:10.37,2013-06-30 11:41:00,
2013-06-30 06:46:00,78.8,75.3,29.79,North,5,16.0,16.0,89,0.00,CLR,SKC,0.00,0.0,WeatherDisplay:10.37,2013-06-30 11:46:00,
2013-06-30 06:51:00,79.2,75.7,29.79,NNW,338,19.6,19.6,89,0.00,CLR,SKC,0.00,0.0,WeatherDisplay:10.37,2013-06-30 11:51:00,
2013-06-30 06:56:00,80.4,75.5,29.85,NNW,331,18.4,18.4,85,0.00,CLR,SKC,0.00,0.0,WeatherDisplay:10.37,2013-06-30 11:56:00,
2013-06-30 07:01:00,81.1,74.7,29.85,NNW,340,19.0,19.0,81,0.00,CLR,SKC,0.00,0.0,WeatherDisplay:10.37,2013-06-30 12:01:00,
2013-06-30 07:06:00,80.6,71.5,29.85,North,360,20.7,20.7,74,0.00,CLR,SKC,0.00,0.0,WeatherDisplay:10.37,2013-06-30 12:06:00,
2013-06-30 07:11:00,76.7,70.8,29.90,NNW,342,28.8,28.8,82,0.09,RA,SKC,0.14,0.0,WeatherDisplay:10.37,2013-06-30 12:11:00,
2013-06-30 07:16:00,74.1,71.0,29.90,NNW,344,20.7,20.7,90,0.30,RA,SKC,0.31,0.0,WeatherDisplay:10.37,2013-06-30 12:16:00,
2013-06-30 07:21:00,73.4,70.6,29.90,NW,315,20.7,20.7,91,0.47,RA,SKC,0.49,0.0,WeatherDisplay:10.37,2013-06-30 12:21:00,
2013-06-30 07:26:00,73.6,70.8,29.88,NW,317,16.1,16.1,91,0.53,RA,SKC,0.53,0.0,WeatherDisplay:10.37,2013-06-30 12:26:00,
2013-06-30 07:31:00,73.9,71.4,29.88,WNW,294,13.8,13.8,92,0.57,RA,SKC,0.57,0.0,WeatherDisplay:10.37,2013-06-30 12:31:00,
2013-06-30 07:36:00,74.3,72.1,29.88,West,275,14.0,14.0,93,0.63,RA,SKC,0.63,0.0,WeatherDisplay:10.37,2013-06-30 12:36:00,
2013-06-30 07:41:00,74.2,72.0,29.86,WNW,301,24.2,24.2,93,0.71,RA,SKC,0.73,0.0,WeatherDisplay:10.37,2013-06-30 12:41:00,
2013-06-30 07:46:00,73.9,71.7,29.86,WNW,283,17.3,17.3,93,0.79,RA,SKC,0.79,0.0,WeatherDisplay:10.37,2013-06-30 12:46:00,
2013-06-30 07:51:00,74.0,71.5,29.86,West,279,17.3,17.3,92,0.80,RA,SKC,0.80,0.0,WeatherDisplay:10.37,2013-06-30 12:51:00,
2013-06-30 07:56:00,74.5,71.7,29.86,West,275,16.1,16.1,91,0.82,RA,SKC,0.82,0.0,WeatherDisplay:10.37,2013-06-30 12:56:00,
2013-06-30 08:01:00,75.0,71.9,29.86,WNW,292,16.1,16.1,90,0.82,RA,SKC,0.82,0.0,WeatherDisplay:10.37,2013-06-30 13:01:00,
2013-06-30 08:06:00,75.5,71.4,29.86,West,277,18.4,18.4,87,0.82,CLR,SKC,0.82,0.0,WeatherDisplay:10.37,2013-06-30 13:06:00,
2013-06-30 08:11:00,75.6,71.1,29.85,WNW,289,18.4,18.4,86,0.73,CLR,SKC,0.82,0.0,WeatherDisplay:10.37,2013-06-30 13:11:00,
2013-06-30 08:16:00,75.4,71.3,29.85,WNW,296,13.8,13.8,87,0.51,CLR,SKC,0.82,0.0,WeatherDisplay:10.37,2013-06-30 13:16:00,
2013-06-30 08:21:00,75.5,71.4,29.85,West,277,11.5,11.5,87,0.36,RA,SKC,0.83,0.0,WeatherDisplay:10.37,2013-06-30 13:21:00,
2013-06-30 08:26:00,75.5,71.4,29.87,WNW,291,12.7,12.7,87,0.30,RA,SKC,0.83,0.0,WeatherDisplay:10.37,2013-06-30 13:26:00,
2013-06-30 08:31:00,75.6,71.5,29.87,West,265,12.7,12.7,87,0.27,RA,SKC,0.84,0.0,WeatherDisplay:10.37,2013-06-30 13:31:00,
2013-06-30 08:36:00,75.5,71.4,29.87,West,267,11.5,11.5,87,0.21,RA,SKC,0.84,5.0,WeatherDisplay:10.37,2013-06-30 13:36:00,
2013-06-30 08:41:00,75.4,70.9,29.87,West,274,11.5,11.5,86,0.14,RA,SKC,0.86,7.0,WeatherDisplay:10.37,2013-06-30 13:41:00,
2013-06-30 08:46:00,75.6,71.1,29.87,West,269,12.7,12.7,86,0.09,RA,SKC,0.87,7.0,WeatherDisplay:10.37,2013-06-30 13:46:00,
2013-06-30 08:51:00,75.7,71.2,29.87,WSW,255,6.0,6.0,86,0.07,RA,SKC,0.87,9.0,WeatherDisplay:10.37,2013-06-30 13:51:00,
2013-06-30 08:56:00,75.4,70.9,29.85,West,260,11.5,11.5,86,0.07,RA,SKC,0.89,11.0,WeatherDisplay:10.37,2013-06-30 13:56:00,
2013-06-30 09:01:00,76.1,72.6,29.85,West,269,12.7,12.7,89,0.09,RA,SKC,0.90,12.0,WeatherDisplay:10.37,2013-06-30 14:01:00,
2013-06-30 09:06:00,75.7,71.6,29.85,West,261,13.8,13.8,87,0.09,RA,SKC,0.90,16.0,WeatherDisplay:10.37,2013-06-30 14:06:00,
2013-06-30 09:11:00,75.2,71.1,29.85,WSW,246,13.0,13.0,87,0.10,RA,SKC,0.92,18.0,WeatherDisplay:10.37,2013-06-30 14:11:00,
2013-06-30 09:16:00,75.2,71.4,29.85,West,280,11.0,11.0,88,0.10,RA,SKC,0.92,19.0,WeatherDisplay:10.37,2013-06-30 14:16:00,
2013-06-30 09:21:00,75.1,71.3,29.85,WNW,286,11.5,11.5,88,0.10,RA,SKC,0.93,21.0,WeatherDisplay:10.37,2013-06-30 14:21:00,
2013-06-30 09:26:00,75.0,71.5,29.85,SSW,209,15.0,15.0,89,0.10,RA,SKC,0.93,25.0,WeatherDisplay:10.37,2013-06-30 14:26:00,
2013-06-30 09:31:00,75.0,71.5,29.85,WSW,239,16.0,16.0,89,0.09,CLR,SKC,0.93,28.0,WeatherDisplay:10.37,2013-06-30 14:31:00,
2013-06-30 09:36:00,75.1,72.0,29.85,South,176,7.0,7.0,90,0.09,CLR,SKC,0.93,33.0,WeatherDisplay:10.37,2013-06-30 14:36:00,
2013-06-30 09:41:00,75.2,72.1,29.83,NNW,334,5.8,5.8,90,0.09,RA,SKC,0.94,39.0,WeatherDisplay:10.37,2013-06-30 14:41:00,
2013-06-30 09:46:00,75.4,72.3,29.83,SW,222,5.8,5.8,90,0.07,RA,SKC,0.94,47.0,WeatherDisplay:10.37,2013-06-30 14:46:00,
2013-06-30 09:51:00,75.2,72.1,29.83,South,190,13.8,13.8,90,0.07,CLR,SKC,0.94,54.0,WeatherDisplay:10.37,2013-06-30 14:51:00,
2013-06-30 09:56:00,75.1,72.0,29.83,WSW,248,6.0,6.0,90,0.06,CLR,SKC,0.94,63.0,WeatherDisplay:10.37,2013-06-30 14:56:00,
2013-06-30 10:01:00,75.4,72.3,29.83,West,278,5.8,5.8,90,0.04,CLR,SKC,0.94,74.0,WeatherDisplay:10.37,2013-06-30 15:01:00,
2013-06-30 10:06:00,75.7,72.2,29.83,SW,234,6.9,6.9,89,0.04,CLR,SKC,0.94,77.0,WeatherDisplay:10.37,2013-06-30 15:06:00,
2013-06-30 10:11:00,76.1,72.3,29.82,SW,217,5.8,5.8,88,0.03,CLR,SKC,0.94,77.0,WeatherDisplay:10.37,2013-06-30 15:11:00,
2013-06-30 10:16:00,76.4,72.9,29.82,ESE,122,6.0,6.0,89,0.03,CLR,SKC,0.94,88.0,WeatherDisplay:10.37,2013-06-30 15:16:00,
2013-06-30 10:21:00,76.6,72.8,29.82,WSW,254,6.9,6.9,88,0.01,CLR,SKC,0.94,102.0,WeatherDisplay:10.37,2013-06-30 15:21:00,
2013-06-30 10:26:00,76.8,73.0,29.81,WNW,286,11.5,11.5,88,0.01,CLR,SKC,0.94,121.0,WeatherDisplay:10.37,2013-06-30 15:26:00,
2013-06-30 10:31:00,77.0,72.8,29.81,SSW,202,4.6,4.6,87,0.01,CLR,SKC,0.94,163.0,WeatherDisplay:10.37,2013-06-30 15:31:00,
2013-06-30 10:36:00,77.0,72.5,29.81,WSW,240,12.7,12.7,86,0.01,CLR,SKC,0.94,202.0,WeatherDisplay:10.37,2013-06-30 15:36:00,
2013-06-30 10:41:00,77.2,73.0,29.82,West,261,4.6,5.0,87,0.00,CLR,SKC,0.94,243.0,WeatherDisplay:10.37,2013-06-30 15:41:00,
2013-06-30 10:46:00,77.4,72.5,29.82,WSW,257,6.9,6.9,85,0.00,CLR,SKC,0.94,304.0,WeatherDisplay:10.37,2013-06-30 15:46:00,
2013-06-30 10:51:00,78.0,72.8,29.82,SW,229,9.2,9.2,84,0.00,CLR,SKC,0.94,366.0,WeatherDisplay:10.37,2013-06-30 15:51:00,
2013-06-30 10:56:00,78.5,72.9,29.82,WSW,238,6.9,6.9,83,0.00,CLR,SKC,0.94,374.0,WeatherDisplay:10.37,2013-06-30 15:56:00,
2013-06-30 11:01:00,79.0,72.7,29.82,WSW,237,11.5,11.5,81,0.00,CLR,SKC,0.94,378.0,WeatherDisplay:10.37,2013-06-30 16:01:00,
2013-06-30 11:06:00,79.6,72.1,29.82,WSW,240,5.8,5.8,78,0.00,CLR,SKC,0.94,387.0,WeatherDisplay:10.37,2013-06-30 16:06:00,
2013-06-30 11:11:00,80.1,71.8,29.82,WNW,283,5.8,5.8,76,0.00,CLR,SKC,0.94,489.0,WeatherDisplay:10.37,2013-06-30 16:11:00,
2013-06-30 11:16:00,80.7,72.4,29.82,WNW,297,6.9,6.9,76,0.00,CLR,SKC,0.94,387.0,WeatherDisplay:10.37,2013-06-30 16:16:00,
2013-06-30 11:21:00,81.4,71.9,29.82,NW,319,4.0,4.0,73,0.00,CLR,SKC,0.94,287.0,WeatherDisplay:10.37,2013-06-30 16:21:00,
2013-06-30 11:26:00,81.8,72.7,29.84,NNW,348,12.0,12.0,74,0.00,CLR,SKC,0.94,265.0,WeatherDisplay:10.37,2013-06-30 16:26:00,
2013-06-30 11:31:00,81.2,72.1,29.84,NW,325,9.0,9.0,74,0.00,CLR,SKC,0.94,265.0,WeatherDisplay:10.37,2013-06-30 16:31:00,
2013-06-30 11:36:00,81.4,71.9,29.84,NNW,331,8.0,8.0,73,0.00,CLR,SKC,0.94,267.0,WeatherDisplay:10.37,2013-06-30 16:36:00,
2013-06-30 11:41:00,81.4,72.7,29.85,North,355,11.5,11.5,75,0.00,CLR,SKC,0.94,230.0,WeatherDisplay:10.37,2013-06-30 16:41:00,
2013-06-30 11:46:00,81.4,71.5,29.85,NW,325,12.7,12.7,72,0.00,CLR,SKC,0.94,144.0,WeatherDisplay:10.37,2013-06-30 16:46:00,
2013-06-30 11:51:00,81.9,72.4,29.85,NW,321,11.5,11.5,73,0.00,CLR,SKC,0.94,83.0,WeatherDisplay:10.37,2013-06-30 16:51:00,
2013-06-30 11:56:00,81.9,72.0,29.85,WNW,294,12.0,12.0,72,0.00,CLR,SKC,0.94,58.0,WeatherDisplay:10.37,2013-06-30 16:56:00,
2013-06-30 12:01:00,81.9,72.4,29.85,NW,304,13.8,13.8,73,0.00,CLR,SKC,0.94,54.0,WeatherDisplay:10.37,2013-06-30 17:01:00,
2013-06-30 12:06:00,82.1,72.6,29.85,NW,320,23.0,23.0,73,0.00,CLR,SKC,0.94,63.0,WeatherDisplay:10.37,2013-06-30 17:06:00,
2013-06-30 12:11:00,81.2,72.1,29.87,NW,321,18.4,18.4,74,0.00,CLR,SKC,0.94,79.0,WeatherDisplay:10.37,2013-06-30 17:11:00,
2013-06-30 12:16:00,80.7,72.4,29.87,WNW,295,25.3,25.3,76,0.00,CLR,SKC,0.94,97.0,WeatherDisplay:10.37,2013-06-30 17:16:00,
2013-06-30 12:21:00,80.5,72.6,29.87,WNW,286,19.0,19.0,77,0.00,CLR,SKC,0.94,134.0,WeatherDisplay:10.37,2013-06-30 17:21:00,
2013-06-30 12:26:00,80.3,72.4,29.87,NNW,330,15.0,15.0,77,0.00,CLR,SKC,0.94,172.0,WeatherDisplay:10.37,2013-06-30 17:26:00,
2013-06-30 12:31:00,80.2,72.7,29.87,NW,315,24.2,24.2,78,0.00,CLR,SKC,0.94,211.0,WeatherDisplay:10.37,2013-06-30 17:31:00,
2013-06-30 12:36:00,79.6,72.9,29.87,NW,317,26.5,26.5,80,0.00,CLR,SKC,0.94,246.0,WeatherDisplay:10.37,2013-06-30 17:36:00,
2013-06-30 12:41:00,79.3,72.6,29.88,West,279,25.3,25.3,80,0.00,CLR,SKC,0.94,290.0,WeatherDisplay:10.37,2013-06-30 17:41:00,
2013-06-30 12:46:00,78.9,72.6,29.88,WNW,290,24.2,24.2,81,0.00,CLR,SKC,0.94,318.0,WeatherDisplay:10.37,2013-06-30 17:46:00,
2013-06-30 12:51:00,78.5,71.8,29.88,NW,322,27.6,27.6,80,0.00,CLR,SKC,0.94,360.0,WeatherDisplay:10.37,2013-06-30 17:51:00,
2013-06-30 12:56:00,78.6,72.3,29.87,NNW,328,26.5,26.5,81,0.00,CLR,SKC,0.94,383.0,WeatherDisplay:10.37,2013-06-30 17:56:00,
2013-06-30 13:01:00,78.6,71.5,29.87,NW,315,28.8,28.8,79,0.00,CLR,SKC,0.94,359.0,WeatherDisplay:10.37,2013-06-30 18:01:00,
2013-06-30 13:06:00,78.6,71.5,29.87,NW,317,26.5,26.5,79,0.00,CLR,SKC,0.94,294.0,WeatherDisplay:10.37,2013-06-30 18:06:00,
2013-06-30 13:11:00,78.6,71.5,29.87,WNW,288,20.7,20.7,79,0.00,CLR,SKC,0.94,271.0,WeatherDisplay:10.37,2013-06-30 18:11:00,
2013-06-30 13:16:00,78.6,72.3,29.87,NW,323,18.4,18.4,81,0.00,CLR,SKC,0.94,265.0,WeatherDisplay:10.37,2013-06-30 18:16:00,
2013-06-30 13:21:00,78.2,71.9,29.87,NW,319,27.6,27.6,81,0.00,CLR,SKC,0.94,297.0,WeatherDisplay:10.37,2013-06-30 18:21:00,
2013-06-30 13:26:00,78.2,71.5,29.85,WNW,298,25.3,25.3,80,0.00,CLR,SKC,0.94,352.0,WeatherDisplay:10.37,2013-06-30 18:26:00,
2013-06-30 13:31:00,78.6,71.9,29.85,WNW,302,20.7,20.7,80,0.00,CLR,SKC,0.94,388.0,WeatherDisplay:10.37,2013-06-30 18:31:00,
2013-06-30 13:36:00,79.0,71.9,29.85,NW,305,16.1,16.1,79,0.00,CLR,SKC,0.94,508.0,WeatherDisplay:10.37,2013-06-30 18:36:00,
2013-06-30 13:41:00,79.2,71.7,29.84,NW,311,20.0,20.0,78,0.00,CLR,SKC,0.94,664.0,WeatherDisplay:10.37,2013-06-30 18:41:00,
2013-06-30 13:46:00,79.6,71.4,29.84,WNW,286,21.9,21.9,76,0.00,CLR,SKC,0.94,939.0,WeatherDisplay:10.37,2013-06-30 18:46:00,
2013-06-30 13:51:00,80.3,71.6,29.84,NW,325,17.3,17.3,75,0.00,CLR,SKC,0.94,891.0,WeatherDisplay:10.37,2013-06-30 18:51:00,
2013-06-30 13:56:00,80.9,71.8,29.83,NW,307,14.0,14.0,74,0.00,CLR,SKC,0.94,823.0,WeatherDisplay:10.37,2013-06-30 18:56:00,
2013-06-30 14:01:00,81.0,71.5,29.83,NW,306,16.1,16.1,73,0.00,CLR,SKC,0.94,684.0,WeatherDisplay:10.37,2013-06-30 19:01:00,
2013-06-30 14:06:00,81.2,71.3,29.83,WNW,290,15.0,15.0,72,0.00,CLR,SKC,0.94,635.0,WeatherDisplay:10.37,2013-06-30 19:06:00,
2013-06-30 14:11:00,81.4,71.5,29.82,NNW,327,17.3,17.3,72,0.00,CLR,SKC,0.94,526.0,WeatherDisplay:10.37,2013-06-30 19:11:00,
2013-06-30 14:16:00,81.5,71.2,29.82,NW,320,15.0,15.0,71,0.00,CLR,SKC,0.94,450.0,WeatherDisplay:10.37,2013-06-30 19:16:00,
2013-06-30 14:21:00,81.6,71.7,29.82,WNW,299,13.8,13.8,72,0.00,CLR,SKC,0.94,388.0,WeatherDisplay:10.37,2013-06-30 19:21:00,
2013-06-30 14:26:00,81.8,71.1,29.81,WNW,284,16.1,16.1,70,0.00,CLR,SKC,0.94,343.0,WeatherDisplay:10.37,2013-06-30 19:26:00,
2013-06-30 14:31:00,81.7,70.5,29.81,WNW,293,12.7,12.7,69,0.00,CLR,SKC,0.94,308.0,WeatherDisplay:10.37,2013-06-30 19:31:00,
2013-06-30 14:36:00,81.6,70.4,29.81,NW,311,14.0,14.0,69,0.00,CLR,SKC,0.94,288.0,WeatherDisplay:10.37,2013-06-30 19:36:00,
2013-06-30 14:41:00,81.5,70.8,29.81,NW,316,13.8,13.8,70,0.00,CLR,SKC,0.94,281.0,WeatherDisplay:10.37,2013-06-30 19:41:00,
2013-06-30 14:46:00,81.5,70.8,29.81,NW,321,11.5,11.5,70,0.00,CLR,SKC,0.94,279.0,WeatherDisplay:10.37,2013-06-30 19:46:00,
2013-06-30 14:51:00,81.4,71.1,29.81,North,360,10.4,10.4,71,0.00,CLR,SKC,0.94,274.0,WeatherDisplay:10.37,2013-06-30 19:51:00,
2013-06-30 14:56:00,81.2,70.5,29.81,North,349,9.2,9.2,70,0.00,CLR,SKC,0.94,248.0,WeatherDisplay:10.37,2013-06-30 19:56:00,
2013-06-30 15:01:00,81.3,71.8,29.81,NW,311,10.4,10.4,73,0.00,CLR,SKC,0.94,225.0,WeatherDisplay:10.37,2013-06-30 20:01:00,
2013-06-30 15:06:00,81.0,71.1,29.81,NW,311,11.5,11.5,72,0.00,CLR,SKC,0.94,230.0,WeatherDisplay:10.37,2013-06-30 20:06:00,
2013-06-30 15:11:00,80.8,71.3,29.80,NNW,348,9.2,9.2,73,0.00,CLR,SKC,0.94,239.0,WeatherDisplay:10.37,2013-06-30 20:11:00,
2013-06-30 15:16:00,80.7,72.0,29.80,NW,317,6.9,6.9,75,0.00,CLR,SKC,0.94,244.0,WeatherDisplay:10.37,2013-06-30 20:16:00,
2013-06-30 15:21:00,80.7,71.6,29.80,NNE,13,6.9,6.9,74,0.00,CLR,SKC,0.94,257.0,WeatherDisplay:10.37,2013-06-30 20:21:00,
2013-06-30 15:26:00,80.9,72.2,29.79,NNW,333,6.0,6.0,75,0.00,CLR,SKC,0.94,262.0,WeatherDisplay:10.37,2013-06-30 20:26:00,
2013-06-30 15:31:00,81.0,71.5,29.79,NE,53,9.2,9.2,73,0.00,CLR,SKC,0.94,251.0,WeatherDisplay:10.37,2013-06-30 20:31:00,
2013-06-30 15:36:00,81.2,72.1,29.79,NNE,27,5.8,5.8,74,0.00,CLR,SKC,0.94,251.0,WeatherDisplay:10.37,2013-06-30 20:36:00,
2013-06-30 15:41:00,81.4,72.3,29.80,NNE,22,10.4,10.4,74,0.00,CLR,SKC,0.94,251.0,WeatherDisplay:10.37,2013-06-30 20:41:00,
2013-06-30 15:46:00,81.5,72.4,29.80,NE,43,6.9,6.9,74,0.00,CLR,SKC,0.94,227.0,WeatherDisplay:10.37,2013-06-30 20:46:00,
2013-06-30 15:51:00,81.4,71.5,29.80,NNE,13,4.6,4.6,72,0.00,CLR,SKC,0.94,209.0,WeatherDisplay:10.37,2013-06-30 20:51:00,
2013-06-30 15:56:00,81.6,72.5,29.81,NNE,25,3.5,3.5,74,0.00,CLR,SKC,0.94,250.0,WeatherDisplay:10.37,2013-06-30 20:56:00,
2013-06-30 16:01:00,81.7,72.2,29.81,NNW,332,3.5,3.5,73,0.00,CLR,SKC,0.94,301.0,WeatherDisplay:10.37,2013-06-30 21:01:00,
2013-06-30 16:06:00,81.7,72.2,29.81,NW,315,6.9,6.9,73,0.00,CLR,SKC,0.94,302.0,WeatherDisplay:10.37,2013-06-30 21:06:00,
2013-06-30 16:11:00,81.8,72.3,29.81,NW,309,5.8,5.8,73,0.00,CLR,SKC,0.94,306.0,WeatherDisplay:10.37,2013-06-30 21:11:00,
2013-06-30 16:16:00,82.0,72.5,29.81,WNW,295,7.0,7.0,73,0.00,CLR,SKC,0.94,309.0,WeatherDisplay:10.37,2013-06-30 21:16:00,
2013-06-30 16:21:00,82.0,72.5,29.81,WNW,292,9.2,9.2,73,0.00,CLR,SKC,0.94,327.0,WeatherDisplay:10.37,2013-06-30 21:21:00,
2013-06-30 16:26:00,82.0,72.5,29.82,NW,310,11.5,11.5,73,0.00,CLR,SKC,0.94,320.0,WeatherDisplay:10.37,2013-06-30 21:26:00,
2013-06-30 16:31:00,81.9,72.0,29.82,West,270,10.4,10.4,72,0.00,CLR,SKC,0.94,338.0,WeatherDisplay:10.37,2013-06-30 21:31:00,
2013-06-30 16:36:00,82.0,72.1,29.82,West,271,6.0,6.0,72,0.00,CLR,SKC,0.94,327.0,WeatherDisplay:10.37,2013-06-30 21:36:00,
2013-06-30 16:41:00,82.2,73.1,29.82,West,263,6.9,6.9,74,0.00,CLR,SKC,0.94,338.0,WeatherDisplay:10.37,2013-06-30 21:41:00,
2013-06-30 16:46:00,82.3,72.0,29.82,West,270,8.1,8.1,71,0.00,CLR,SKC,0.94,406.0,WeatherDisplay:10.37,2013-06-30 21:46:00,
2013-06-30 16:51:00,82.3,72.4,29.82,West,273,6.0,6.0,72,0.00,CLR,SKC,0.94,355.0,WeatherDisplay:10.37,2013-06-30 21:51:00,
2013-06-30 16:56:00,82.3,72.4,29.81,WSW,247,10.4,10.4,72,0.00,CLR,SKC,0.94,366.0,WeatherDisplay:10.37,2013-06-30 21:56:00,
2013-06-30 17:01:00,82.4,72.9,29.81,WSW,241,4.0,4.0,73,0.00,CLR,SKC,0.94,315.0,WeatherDisplay:10.37,2013-06-30 22:01:00,
2013-06-30 17:06:00,82.6,73.1,29.81,West,263,5.0,5.0,73,0.00,CLR,SKC,0.94,294.0,WeatherDisplay:10.37,2013-06-30 22:06:00,
2013-06-30 17:11:00,82.6,72.7,29.81,West,259,3.5,3.5,72,0.00,CLR,SKC,0.94,251.0,WeatherDisplay:10.37,2013-06-30 22:11:00,
2013-06-30 17:16:00,82.9,72.5,29.81,WSW,240,2.3,2.3,71,0.00,CLR,SKC,0.94,202.0,WeatherDisplay:10.37,2013-06-30 22:16:00,
2013-06-30 17:21:00,83.1,72.7,29.81,West,259,1.1,1.5,71,0.00,CLR,SKC,0.94,160.0,WeatherDisplay:10.37,2013-06-30 22:21:00,
2013-06-30 17:26:00,83.3,72.5,29.81,WSW,248,4.6,4.6,70,0.00,CLR,SKC,0.94,125.0,WeatherDisplay:10.37,2013-06-30 22:26:00,
2013-06-30 17:31:00,83.4,72.6,29.81,WSW,252,3.5,3.5,70,0.00,CLR,SKC,0.94,100.0,WeatherDisplay:10.37,2013-06-30 22:31:00,
2013-06-30 17:36:00,83.5,73.1,29.81,West,259,3.5,3.5,71,0.00,CLR,SKC,0.94,86.0,WeatherDisplay:10.37,2013-06-30 22:36:00,
2013-06-30 17:41:00,83.3,72.1,29.80,WSW,250,5.8,5.8,69,0.00,CLR,SKC,0.94,81.0,WeatherDisplay:10.37,2013-06-30 22:41:00,
2013-06-30 17:46:00,83.1,71.9,29.80,WSW,258,3.5,3.6,69,0.00,CLR,SKC,0.94,76.0,WeatherDisplay:10.37,2013-06-30 22:46:00,
2013-06-30 17:51:00,83.1,72.7,29.80,West,261,4.6,4.6,71,0.00,CLR,SKC,0.94,76.0,WeatherDisplay:10.37,2013-06-30 22:51:00,
2013-06-30 17:56:00,83.0,72.6,29.81,WSW,253,3.5,3.5,71,0.00,CLR,SKC,0.94,77.0,WeatherDisplay:10.37,2013-06-30 22:56:00,
2013-06-30 18:01:00,83.0,72.6,29.81,West,260,5.0,5.0,71,0.00,CLR,SKC,0.94,79.0,WeatherDisplay:10.37,2013-06-30 23:01:00,
2013-06-30 18:06:00,83.2,72.8,29.81,West,263,5.8,5.8,71,0.00,CLR,SKC,0.94,77.0,WeatherDisplay:10.37,2013-06-30 23:06:00,
2013-06-30 18:11:00,83.2,72.4,29.80,West,259,3.5,3.5,70,0.00,CLR,SKC,0.94,76.0,WeatherDisplay:10.37,2013-06-30 23:11:00,
2013-06-30 18:16:00,83.4,72.2,29.80,WSW,257,5.8,5.8,69,0.00,CLR,SKC,0.94,72.0,WeatherDisplay:10.37,2013-06-30 23:16:00,
2013-06-30 18:21:00,83.5,72.7,29.80,West,259,6.0,6.0,70,0.00,CLR,SKC,0.94,76.0,WeatherDisplay:10.37,2013-06-30 23:21:00,
2013-06-30 18:26:00,83.6,72.8,29.80,West,279,6.9,6.9,70,0.00,CLR,SKC,0.94,79.0,WeatherDisplay:10.37,2013-06-30 23:26:00,
2013-06-30 18:31:00,83.8,72.5,29.80,WNW,289,5.8,5.8,69,0.00,CLR,SKC,0.94,84.0,WeatherDisplay:10.37,2013-06-30 23:31:00,
2013-06-30 18:36:00,83.9,72.6,29.80,West,275,3.5,3.5,69,0.00,CLR,SKC,0.94,69.0,WeatherDisplay:10.37,2013-06-30 23:36:00,
2013-06-30 18:41:00,84.0,72.7,29.80,West,280,4.6,4.6,69,0.00,CLR,SKC,0.94,76.0,WeatherDisplay:10.37,2013-06-30 23:41:00,
2013-06-30 18:46:00,84.2,72.5,29.80,West,273,5.8,5.8,68,0.00,CLR,SKC,0.94,74.0,WeatherDisplay:10.37,2013-06-30 23:46:00,
2013-06-30 18:51:00,84.3,72.6,29.80,West,275,5.0,5.0,68,0.00,CLR,SKC,0.94,81.0,WeatherDisplay:10.37,2013-06-30 23:51:00,
2013-06-30 18:56:00,84.3,73.0,29.80,West,271,6.0,6.0,69,0.00,CLR,SKC,0.94,95.0,WeatherDisplay:10.37,2013-06-30 23:56:00,
2013-06-30 19:01:00,84.3,73.4,29.80,West,261,6.0,6.0,70,0.00,CLR,SKC,0.94,98.0,WeatherDisplay:10.37,2013-07-01 00:01:00,
2013-06-30 19:06:00,84.2,73.8,29.80,West,259,8.1,8.1,71,0.00,CLR,SKC,0.94,107.0,WeatherDisplay:10.37,2013-07-01 00:06:00,
2013-06-30 19:11:00,84.2,74.2,29.79,West,267,6.9,6.9,72,0.00,CLR,SKC,0.94,125.0,WeatherDisplay:10.37,2013-07-01 00:11:00,
2013-06-30 19:16:00,84.1,74.1,29.79,West,266,6.9,6.9,72,0.00,CLR,SKC,0.94,123.0,WeatherDisplay:10.37,2013-07-01 00:16:00,
2013-06-30 19:21:00,84.1,73.7,29.79,West,265,7.0,7.0,71,0.00,CLR,SKC,0.94,111.0,WeatherDisplay:10.37,2013-07-01 00:21:00,
2013-06-30 19:26:00,84.1,74.1,29.79,West,262,7.0,7.0,72,0.00,CLR,SKC,0.94,98.0,WeatherDisplay:10.37,2013-07-01 00:26:00,
2013-06-30 19:31:00,84.1,72.8,29.79,West,271,11.5,11.5,69,0.00,CLR,SKC,0.94,84.0,WeatherDisplay:10.37,2013-07-01 00:31:00,
2013-06-30 19:36:00,84.4,72.2,29.79,WNW,292,7.0,7.0,67,0.00,CLR,SKC,0.94,74.0,WeatherDisplay:10.37,2013-07-01 00:36:00,
2013-06-30 19:41:00,84.5,71.4,29.79,WNW,290,6.9,6.9,65,0.00,CLR,SKC,0.94,114.0,WeatherDisplay:10.37,2013-07-01 00:41:00,
2013-06-30 19:46:00,84.9,71.8,29.79,NW,311,5.8,5.8,65,0.00,CLR,SKC,0.94,105.0,WeatherDisplay:10.37,2013-07-01 00:46:00,
2013-06-30 19:51:00,85.0,71.9,29.79,NW,326,5.8,5.8,65,0.00,CLR,SKC,0.94,88.0,WeatherDisplay:10.37,2013-07-01 00:51:00,
2013-06-30 19:56:00,84.8,72.2,29.79,WNW,294,6.9,6.9,66,0.00,CLR,SKC,0.94,70.0,WeatherDisplay:10.37,2013-07-01 00:56:00,
2013-06-30 20:01:00,84.6,71.5,29.79,WNW,288,8.1,8.1,65,0.00,CLR,SKC,0.94,47.0,WeatherDisplay:10.37,2013-07-01 01:01:00,
2013-06-30 20:06:00,84.4,71.8,29.79,WNW,302,8.1,8.1,66,0.00,CLR,SKC,0.94,40.0,WeatherDisplay:10.37,2013-07-01 01:06:00,
2013-06-30 20:11:00,84.2,72.0,29.79,WNW,291,5.0,5.0,67,0.00,CLR,SKC,0.94,26.0,WeatherDisplay:10.37,2013-07-01 01:11:00,
2013-06-30 20:16:00,83.9,72.6,29.79,NW,305,5.8,5.8,69,0.00,CLR,SKC,0.94,18.0,WeatherDisplay:10.37,2013-07-01 01:16:00,
2013-06-30 20:21:00,83.7,72.9,29.79,West,276,6.9,6.9,70,0.00,CLR,SKC,0.94,9.0,WeatherDisplay:10.37,2013-07-01 01:21:00,
2013-06-30 20:26:00,83.4,73.0,29.80,West,281,6.9,6.9,71,0.00,CLR,SKC,0.94,0.0,WeatherDisplay:10.37,2013-07-01 01:26:00,
2013-06-30 20:31:00,83.3,72.9,29.80,West,269,7.0,7.0,71,0.00,CLR,SKC,0.94,0.0,WeatherDisplay:10.37,2013-07-01 01:31:00,
2013-06-30 20:36:00,83.2,72.8,29.80,West,274,10.4,10.4,71,0.00,CLR,SKC,0.94,0.0,WeatherDisplay:10.37,2013-07-01 01:36:00,
2013-06-30 20:41:00,83.0,73.0,29.80,WNW,296,6.9,6.9,72,0.00,CLR,SKC,0.94,0.0,WeatherDisplay:10.37,2013-07-01 01:41:00,
2013-06-30 20:46:00,82.9,73.4,29.80,WNW,290,6.0,6.0,73,0.00,CLR,SKC,0.94,0.0,WeatherDisplay:10.37,2013-07-01 01:46:00,
2013-06-30 20:51:00,82.7,73.2,29.80,WNW,294,9.2,9.2,73,0.00,CLR,SKC,0.94,0.0,WeatherDisplay:10.37,2013-07-01 01:51:00,
2013-06-30 20:56:00,82.6,72.7,29.80,WNW,284,6.9,6.9,72,0.00,CLR,SKC,0.94,0.0,WeatherDisplay:10.37,2013-07-01 01:56:00,
2013-06-30 21:01:00,82.6,72.2,29.80,WNW,284,6.0,6.0,71,0.00,CLR,SKC,0.94,0.0,WeatherDisplay:10.37,2013-07-01 02:01:00,
2013-06-30 21:06:00,82.5,72.6,29.80,WNW,287,5.0,5.0,72,0.00,CLR,SKC,0.94,0.0,WeatherDisplay:10.37,2013-07-01 02:06:00,
2013-06-30 21:11:00,82.3,72.4,29.80,WNW,302,3.5,4.9,72,0.00,CLR,SKC,0.94,0.0,WeatherDisplay:10.37,2013-07-01 02:11:00,
2013-06-30 21:16:00,82.2,72.7,29.80,WNW,301,4.6,4.6,73,0.00,CLR,SKC,0.94,0.0,WeatherDisplay:10.37,2013-07-01 02:16:00,
2013-06-30 21:21:00,82.1,73.0,29.80,NW,304,4.0,4.0,74,0.00,CLR,SKC,0.94,0.0,WeatherDisplay:10.37,2013-07-01 02:21:00,
2013-06-30 21:26:00,81.9,73.2,29.80,WNW,288,3.5,3.5,75,0.00,CLR,SKC,0.94,0.0,WeatherDisplay:10.37,2013-07-01 02:26:00,
2013-06-30 21:31:00,81.7,72.6,29.80,NW,304,4.6,4.6,74,0.00,CLR,SKC,0.94,0.0,WeatherDisplay:10.37,2013-07-01 02:31:00,
2013-06-30 21:36:00,81.7,73.0,29.80,WNW,297,3.5,3.5,75,0.00,CLR,SKC,0.94,0.0,WeatherDisplay:10.37,2013-07-01 02:36:00,
2013-06-30 21:41:00,81.7,73.0,29.80,NW,325,3.5,3.5,75,0.00,CLR,SKC,0.94,0.0,WeatherDisplay:10.37,2013-07-01 02:41:00,
2013-06-30 21:46:00,81.6,73.3,29.80,NW,325,3.5,3.5,76,0.00,CLR,SKC,0.94,0.0,WeatherDisplay:10.37,2013-07-01 02:46:00,
2013-06-30 21:51:00,81.6,73.3,29.80,WNW,297,3.5,3.5,76,0.00,CLR,SKC,0.94,0.0,WeatherDisplay:10.37,2013-07-01 02:51:00,
2013-06-30 21:56:00,81.6,73.7,29.81,WNW,295,3.5,3.5,77,0.00,CLR,SKC,0.94,0.0,WeatherDisplay:10.37,2013-07-01 02:56:00,
2013-06-30 22:01:00,81.5,73.6,29.81,WNW,294,3.5,3.5,77,0.00,CLR,SKC,0.94,0.0,WeatherDisplay:10.37,2013-07-01 03:01:00,
2013-06-30 22:06:00,81.5,74.0,29.81,West,269,4.0,4.0,78,0.00,CLR,SKC,0.94,0.0,WeatherDisplay:10.37,2013-07-01 03:06:00,
2013-06-30 22:11:00,81.4,74.3,29.81,West,267,5.8,5.8,79,0.00,CLR,SKC,0.94,0.0,WeatherDisplay:10.37,2013-07-01 03:11:00,
2013-06-30 22:16:00,81.2,74.1,29.81,West,271,5.8,5.8,79,0.00,CLR,SKC,0.94,0.0,WeatherDisplay:10.37,2013-07-01 03:16:00,
2013-06-30 22:21:00,81.1,74.3,29.81,West,268,3.5,3.5,80,0.00,CLR,SKC,0.94,0.0,WeatherDisplay:10.37,2013-07-01 03:21:00,
2013-06-30 22:26:00,81.0,74.2,29.81,West,268,3.5,3.5,80,0.00,CLR,SKC,0.94,0.0,WeatherDisplay:10.37,2013-07-01 03:26:00,
2013-06-30 22:31:00,80.9,73.8,29.81,WNW,284,4.0,4.0,79,0.00,CLR,SKC,0.94,0.0,WeatherDisplay:10.37,2013-07-01 03:31:00,
2013-06-30 22:36:00,80.8,73.3,29.81,WNW,284,4.0,4.0,78,0.00,CLR,SKC,0.94,0.0,WeatherDisplay:10.37,2013-07-01 03:36:00,
2013-06-30 22:41:00,80.9,73.8,29.81,WNW,287,4.0,4.0,79,0.00,CLR,SKC,0.94,0.0,WeatherDisplay:10.37,2013-07-01 03:41:00,
2013-06-30 22:46:00,80.9,73.8,29.81,WNW,283,4.6,4.6,79,0.00,CLR,SKC,0.94,0.0,WeatherDisplay:10.37,2013-07-01 03:46:00,
2013-06-30 22:51:00,80.9,73.8,29.81,WNW,285,4.6,4.6,79,0.00,CLR,SKC,0.94,0.0,WeatherDisplay:10.37,2013-07-01 03:51:00,
2013-06-30 22:56:00,80.9,73.8,29.81,West,275,4.6,4.6,79,0.00,CLR,SKC,0.94,0.0,WeatherDisplay:10.37,2013-07-01 03:56:00,
2013-06-30 23:01:00,80.9,73.8,29.81,West,277,4.6,4.6,79,0.00,CLR,SKC,0.94,0.0,WeatherDisplay:10.37,2013-07-01 04:01:00,
2013-06-30 23:06:00,80.8,73.7,29.81,WNW,288,3.5,3.5,79,0.00,CLR,SKC,0.94,0.0,WeatherDisplay:10.37,2013-07-01 04:06:00,
2013-06-30 23:11:00,80.7,73.2,29.81,WNW,282,3.5,3.7,78,0.00,CLR,SKC,0.94,0.0,WeatherDisplay:10.37,2013-07-01 04:11:00,
2013-06-30 23:16:00,80.8,73.7,29.81,West,281,5.0,5.0,79,0.00,CLR,SKC,0.94,0.0,WeatherDisplay:10.37,2013-07-01 04:16:00,
2013-06-30 23:21:00,80.8,72.9,29.81,West,271,5.0,5.0,77,0.00,CLR,SKC,0.94,0.0,WeatherDisplay:10.37,2013-07-01 04:21:00,
2013-06-30 23:26:00,80.9,73.4,29.81,West,271,5.0,5.0,78,0.00,CLR,SKC,0.94,0.0,WeatherDisplay:10.37,2013-07-01 04:26:00,
2013-06-30 23:31:00,80.7,73.6,29.81,West,262,4.6,4.6,79,0.00,CLR,SKC,0.94,0.0,WeatherDisplay:10.37,2013-07-01 04:31:00,
2013-06-30 23:36:00,80.3,72.8,29.81,West,263,5.8,5.8,78,0.00,CLR,SKC,0.94,0.0,WeatherDisplay:10.37,2013-07-01 04:36:00,
2013-06-30 23:41:00,80.1,73.4,29.81,WSW,256,5.0,5.0,80,0.00,CLR,SKC,0.94,0.0,WeatherDisplay:10.37,2013-07-01 04:41:00,
2013-06-30 23:46:00,79.6,72.9,29.81,West,262,4.6,4.6,80,0.00,CLR,SKC,0.94,0.0,WeatherDisplay:10.37,2013-07-01 04:46:00,
2013-06-30 23:51:00,79.3,73.0,29.81,WSW,254,5.8,5.8,81,0.00,CLR,SKC,0.94,0.0,WeatherDisplay:10.37,2013-07-01 04:51:00,
2013-06-30 23:56:00,79.0,72.7,29.81,WSW,253,4.6,4.6,81,0.00,CLR,SKC,0.94,0.0,WeatherDisplay:10.37,2013-07-01 04:56:00,